Weather Roundup
Issued by NWS

Home | Current Version | Previous Version | Text Only | Print | Product List | Glossary On
Versions: 1 2 3 4 5 6 7 8 9 10 11 12 13 14 15 16 17 18 19 20 21 22 23 24 25 26 27 28 29 30 31 32 33 34 35 36 37 38 39 40 41 42 43 44 45 46 47 48 49 50
761
NZUS93 KARX 291010
HRRWXR

CURRENT HOURLY OBSERVATIONS ACROSS
MUCH OF THE UPPER MISSISSIPPI VALLEY
NATIONAL WEATHER SERVICE LA CROSSE WI
500 AM CDT SUN MAY 29 2016


...SOUTHEAST MINNESOTA...


CITY           SKY/WX    TMP DP  RH WIND       PRES   REMARKS
ROCHESTER      MOCLDY    60  60 100 W14       29.89R
ROCHESTER/MAYO CLOUDY    60  60 100 W10G16    29.88R
WINONA         CLOUDY    63  61  94 NW5       29.85R
AUSTIN         CLOUDY    61  57  88 W9        29.90R
ALBERT LEA     PTCLDY    59  59 100 W5        29.91R FOG
DODGE CENTER   CLOUDY    61  59  94 W10       29.89R
PRESTON        PTCLDY    60  58  92 W9        29.89R
OWATONNA       MOCLDY    61  57  88 W9        29.89S FOG
FARIBAULT      CLOUDY    61  61 100 SW8       29.88R
$$

...ELSEWHERE IN MINNESOTA...


CITY           SKY/WX    TMP DP  RH WIND       PRES   REMARKS
MINNEAPOLIS    CLOUDY    62  59  90 W6        29.85R
INTNL FALLS    FOG       56  55  97 NW7       29.78S VSB 1/4
DULUTH         CLOUDY    57  56  96 W7        29.78F FOG
RED WING       MOCLDY    61  61 100 W3        29.84R FOG
REDWOOD FALLS  PTCLDY    59  56  89 W8        29.90S
MANKATO        CLOUDY    61  57  88 W10       29.89S
WORTHINGTON    FOG       57  55  94 W8        29.97R VSB 3/4
FAIRMONT       CLEAR     59  54  82 W10       29.93R
$$

...SOUTHWEST WISCONSIN...


CITY           SKY/WX    TMP DP  RH WIND       PRES   REMARKS
LA CROSSE      CLOUDY    64  60  87 SW7       29.83S
PRAIRIE DU CHI CLOUDY    64  58  82 SW8       29.86S
BOSCOBEL       CLOUDY    65  61  87 SW6       29.86R
LONE ROCK      CLOUDY    64  59  83 SW9       29.86S
PLATTEVILLE    PTCLDY    63  60  90 SW10      29.90R
FORT MC COY    CLOUDY    62  61  96 CALM      29.85R
CAMP DOUGLAS   PTCLDY    62  62 100 VRB3      29.84R
MAUSTON-NEW LI MOSUNNY   62  59  90 CALM      29.84R
VIROQUA        CLOUDY    61  60  97 SW8       29.86R
WIS DELLS      CLEAR     60  58  91 S5        29.86S
$$

...ELSEWHERE IN WISCONSIN...


CITY           SKY/WX    TMP DP  RH WIND       PRES   REMARKS
MILWAUKEE      PTCLDY    64  62  93 S7        29.92R
MADISON        CLEAR     64  59  83 S9        29.87S
GREEN BAY      CLEAR     65  62  90 S6        29.85S
EAU CLAIRE     CLOUDY    61  60  97 SW5       29.82R
BLACK RVR FLS  CLOUDY    58  58 100 CALM      29.83R
MEDFORD        CLOUDY    58  58 100 SW5       29.83S
WAUSAU         CLOUDY    65  61  87 SW7       29.82S
WIS RAPIDS     MOCLDY    63  59  87 S5        29.84F
MARSHFIELD     CLOUDY    61  58  90 SW5       29.82S
RICE LAKE      CLOUDY    60  58  92 CALM      29.83S
$$

...NORTHEAST IOWA...


CITY           SKY/WX    TMP DP  RH WIND       PRES   REMARKS
WATERLOO       CLOUDY    63  60  90 W10       29.91R
DUBUQUE        CLEAR     61  58  90 SW10      29.90R
DECORAH        CLOUDY    61  61 100 CALM      29.87R
MASON CITY     CLEAR     59  59 100 W9        29.94R
CHARLES CITY   CLOUDY    63  63 100 W13       29.92R
OELWEIN        CLOUDY    63  63 100 W13       29.91R
$$

...ELSEWHERE IN IOWA...


CITY           SKY/WX    TMP DP  RH WIND       PRES   REMARKS
DES MOINES     PTCLDY    59  55  87 W5        29.98R
IOWA CITY      CLEAR     63  58  83 W8        29.95R
FORT DODGE     PTCLDY    59  55  88 W5        29.96S
MARSHALLTOWN   MOCLDY    62  60  93 W10       29.94R
CEDAR RAPIDS   PTCLDY    61  59  93 W10       29.93R
$$

...NORTHERN ILLINOIS...


CITY           SKY/WX    TMP DP  RH WIND       PRES   REMARKS
CHICAGO-OHARE  PTCLDY    63  61  93 S8        29.95S
CHICAGO-MIDWAY PTCLDY    65  59  81 SW7       29.96R
MOLINE         CLEAR     66  57  72 SW9       29.94R
ROCKFORD       MOCLDY    64  60  87 S7        29.95R
PEORIA         CLEAR     64  61  90 S7        29.99S
$$

NOTE: "FAIR" INDICATES FEW OR NO CLOUDS BELOW 12,000 FEET WITH NO
SIGNIFICANT WEATHER AND/OR OBSTRUCTIONS TO VISIBILITY. WIND
SPEEDS ARE IN MILES-PER-HOUR.




USA.gov is the U.S. government's official web portal to all federal, state and local government web resources and services.